Regional Weather Roundup
Issued by NWS Upton, NY

Current Version | Previous Version | Text Only | Print | Product List | Glossary On
Versions: 1 2 3 4 5 6 7 8 9 10 11 12 13 14 15 16 17 18 19 20 21 22 23 24 25 26 27 28 29 30 31 32 33 34 35 36 37 38 39 40 41 42 43 44 45 46 47 48 49 50
000 ASUS41 KOKX 291605 RWROKX REGIONAL WEATHER ROUNDUP NATIONAL WEATHER SERVICE NEW YORK NY 1100 AM EST THU JAN 29 2015 NOTE: "FAIR" INDICATES FEW OR NO CLOUDS BELOW 12,000 FEET WITH NO SIGNIFICANT WEATHER AND/OR OBSTRUCTIONS TO VISIBILITY. NYZ071-072-176-178-NJZ106-104-291700- NEW YORK CITY METRO AREA CITY SKY/WX TMP DP RH WIND PRES REMARKS CENTRAL PARK SUNNY 29 5 36 E3 30.32F LAGUARDIA APRT PTSUNNY 26 6 42 NE7 30.31F WCI 18 KENNEDY INTL PTSUNNY 29 6 38 CALM 30.33S NEWARK/LIBERTY PTSUNNY 27 6 41 CALM 30.32S BRNX BOT. GARD N/A N/A N/A N/A S1 30.30S TETERBORO SUNNY 27 5 39 CALM 30.31F $$ NYZ177-179-078>081-291700- LONG ISLAND NEW YORK CITY SKY/WX TMP DP RH WIND PRES REMARKS FARMINGDALE SUNNY 28 8 43 E3 30.30F ISLIP PTSUNNY 31 12 45 CALM 30.29F SHIRLEY SUNNY 30 6 36 SE5 30.31F WCI 25 WESTHAMPTON SUNNY 28 9 44 NE7 30.31F WCI 21 MONTAUK POINT N/A 31 17 56 N6 30.32F WCI 25 $$ NYZ052-065-067-291700- HUDSON VALLEY CITY SKY/WX TMP DP RH WIND PRES REMARKS WHITE PLAINS SUNNY 27 -1 30 SE6 30.27F WCI 20 NEWBURGH SUNNY N/A N/A N/A CALM 30.29F MONTGOMERY SUNNY 19 1 45 CALM 30.28F POUGHKEEPSIE SUNNY 19 2 47 CALM 30.31F ALBANY PTSUNNY 13 1 59 S3 30.28F $$ NJZ001-105-106-008-010-013-015-019>022-104-291700- NEW JERSEY CITY SKY/WX TMP DP RH WIND PRES REMARKS NEWARK/LIBERTY PTSUNNY 27 6 41 CALM 30.32S TETERBORO SUNNY 27 5 39 CALM 30.31F CALDWELL SUNNY 25 -1 32 CALM 30.31F MORRISTOWN PTSUNNY 25 3 39 CALM 30.31F SOMERVILLE MOSUNNY 27 0 31 CALM 30.29F SUSSEX MOSUNNY 19 3 49 CALM 30.27F ANDOVER N/A 22 1 40 N5 30.27F WCI 16 TRENTON MOSUNNY 25 2 37 SE6 30.30F WCI 18 MILLVILLE MOSUNNY 32 11 41 SE7 30.30F WCI 26 ATLANTIC CITY MOSUNNY 31 14 49 SE3 30.32S WRIGHTSTOWN PTSUNNY 28 6 39 N2 30.29S TOMS RIVER SUNNY 27 12 54 CALM 30.32S BELMAR SUNNY 28 9 43 SE5 30.30S WCI 23 $$ PAZ047>061-062-071-291700- EASTERN PENNSYLVANIA CITY SKY/WX TMP DP RH WIND PRES REMARKS PHILADELPHIA PTSUNNY 31 4 31 SE6 30.32F WCI 25 ALLENTOWN PTSUNNY 21 5 50 NE5 30.29S WCI 15 SCRANTON PTSUNNY 16 7 67 W5 30.21S WCI 9 $$ CTZ002-004>006-009-010-012-RIZ004-006-007-MAZ004-011-015-291700- SOUTHERN NEW ENGLAND IN CT CITY SKY/WX TMP DP RH WIND PRES REMARKS BRADLEY INTL PTSUNNY 19 0 43 NE5 30.30F WCI 12 HARTFORD SUNNY 17 1 49 VRB6 30.32F WCI 9 DANBURY SUNNY 24 0 35 N7 30.28F WCI 16 WTRBRY/OXFORD PTSUNNY 23 0 36 E5 30.26F WCI 17 BRIDGEPORT SUNNY 27 4 37 NE5 30.31F WCI 22 MERIDEN SUNNY 22 -1 36 N6 30.31F WCI 14 NEW HAVEN MOSUNNY 24 3 40 N6 30.30F WCI 17 CHESTER FAIR 28 0 29 CALM 30.28F GROTON SUNNY 26 2 35 N3 30.31F WILLIMANTIC SUNNY 20 2 45 CALM 30.31F IN RI CITY SKY/WX TMP DP RH WIND PRES REMARKS PROVIDENCE PTSUNNY 24 0 35 CALM 30.31F BLOCK ISLAND SUNNY 28 16 59 NE6 30.30S WCI 22 WESTERLY SUNNY 29 1 30 CALM 30.31F IN MA CITY SKY/WX TMP DP RH WIND PRES REMARKS BOSTON MOSUNNY 28 6 39 CALM 30.32F WORCESTER SUNNY 25 -7 24 SE3 30.25S WESTFIELD SUNNY 20 -2 38 N6 30.29F WCI 12 PROVINCETOWN NOT AVBL NANTUCKET MOSUNNY 32 24 72 NW9 30.28F WCI 24 $$ ANZ330-335-338-340-345-350-353-355-291700- COASTAL MARINE OBSERVATIONS STATION/POSITION TIME SKY/WX TEMP WIND PRES VSBY WAVE AIR SEA DIR/SP/G HT/PER (UTC) (F) (DEG/KT/KT) (MB) (MI) (FT/S) NY HARB ENTRANCE 1600 28 40 100/ 4/ 6 1026.4 2/11 4S FIRE IS NOT AVBL 20S FIRE ISLAND 1500 42 1027.3 3/11 23SW MTP 1600 N/A 3/10 HUDSON CANYON NOT AVBL EXECUTION ROCKS 1600 31 33 70/ 6/ 8 N/A WESTERN LI SOUND 1600 25 80/ 8/ 10 N/A 0 CENTRAL LI SOUND 1500 25 35 360/ 4/ 6 N/A 1 EASTERN LI SOUND NOT AVBL ROBBINS REEF 1500 24 10/ 2/ 3 1025.3 $$ >>>>>>>>>>>>>>>>>>>>>>>>>>>> KEY <<<<<<<<<<<<<<<<<<<<<<<<<<< > < > SKY/WX - SKY CONDITION/PRESENT WEATHER < > TMP - TEMPERATURE IN FAHRENHEIT < > DP - DEWPOINT IN FAHRENHEIT < > RH - RELATIVE HUMIDITY IN PERCENT < > WIND - DIRECTION AND SPEED IN MPH < > PRES - MEAN SEA LEVEL PRESSURE IN INCHES OF HG < > WCI - WIND CHILL INDEX < > VSB - VISIBILITY IN MILES < > HX - HEAT INDEX < > TC - TEMPERATURE IN CELSIUS < > VRB - VARIABLE WIND DIRECTION < > < >>>>>>>>>>>>>>>>>>>>>>>>>>>> KEY <<<<<<<<<<<<<<<<<<<<<<<<<<<

USA.gov is the U.S. government's official web portal to all federal, state and local government web resources and services.